Location: Gleizolles
(44.4833°N, 6.7667°E)
Time: 13:24:53
(UTC+00:00)

deb Explorer IX - Pass Details

Date: 04 July 2024
Orbit: 510 x 878 km, 38.7° (Epoch: 21 July)

Event Time Altitude Azimuth Distance (km) Brightness Sun altitude
Rises 06:29:59 0° 265° (W) 2,612 ? 24.9°
Reaches altitude 10° 06:32:24 10° 253° (WSW) 1,740 ? 25.3°
Maximum altitude 06:35:43 26° 195° (SSW) 1,061 ? 25.9°
Drops below altitude 10° 06:39:14 10° 137° (SE) 1,835 ? 26.5°
Sets 06:41:51 0° 125° (SE) 2,787 ? 27.0°
